Weather History for Bennettsville, SC

Change the Weather History Date:

Thursday, September 12, 2013

  Actual Average (KFLO) Record (KFLO)
Temperature  
Mean Temperature 80 °F 76 °F  
Max Temperature 95 °F 85 °F 96 °F (1983)
Min Temperature 66 °F 66 °F 49 °F (1976)
Degree Days  
Heating Degree Days 0 0  
Month to date heating degree days 0  
Since 1 July heating degree days 0  
Cooling Degree Days 16 11  
Month to date cooling degree days 143  
Year to date cooling degree days 1813  
Growing Degree Days 30 (Base 50)    
Moisture  
Dew Point 71 °F    
Average Humidity 77    
Maximum Humidity 100    
Minimum Humidity 44    
Precipitation  
Precipitation 0.00 in 0.12 in 1.52 in (1964)
Month to date precipitation 1.58  
Year to date precipitation 32.06  
Sea Level Pressure  
Sea Level Pressure 29.97 in    
Wind  
Wind Speed 2 mph (SW)    
Max Wind Speed 10 mph    
Max Gust Speed 16 mph    
T = Trace of Precipitation, MM = Missing Value Source: NWS Daily Summary

Daily Weather History Graph

Daily Weather History Graph

Search for Another Location

Airport:

Trip Planner

Search our weather history database for the weather conditions in past years. The results will help you decide how hot, cold, wet, or windy it might be!

Date:

Astronomy

Sep. 12, 2013 Rise Set
Actual Time 6:59 AM EDT 7:29 PM EDT
Civil Twilight 6:34 AM EDT 7:54 PM EDT
Nautical Twilight 6:04 AM EDT 8:24 PM EDT
Astronomical Twilight 5:34 AM EDT 8:54 PM EDT
Moon 2:09 PM EDT (9/12) No Moon Set
Length of Visible Light 13h 20m
Length of Day
12h 29m
Waxing Crescent, 50% of the Moon is Illuminated
Sep 12
Waxing Crescent
Sep 12
First Quarter
Sep 19
Full
Sep 26
Last Quarter
Oct 4
New

Hourly Weather History & Observations

Time (EDT) Temp. Heat Index Dew Point Humidity Pressure Visibility Wind Dir Wind Speed Gust Speed Precip Events Conditions
12:15 AM 69.8 °F - 69.8 °F 100% 30.10 in - Calm Calm - N/A   Unknown
12:35 AM 69.8 °F - 69.8 °F 100% 30.09 in - Calm Calm - N/A   Unknown
12:55 AM 68.0 °F - 68.0 °F 100% 30.09 in - Calm Calm - N/A   Unknown
1:15 AM 68.0 °F - 68.0 °F 100% 30.09 in - Calm Calm - N/A   Unknown
1:35 AM 68.0 °F - 68.0 °F 100% 30.08 in - Calm Calm - N/A   Unknown
1:55 AM 68.0 °F - 68.0 °F 100% 30.08 in - Calm Calm - N/A   Unknown
2:15 AM 71.6 °F - 71.6 °F 100% 30.07 in - Calm Calm - N/A   Unknown
2:35 AM 69.8 °F - 69.8 °F 100% 30.06 in - Calm Calm - N/A   Unknown
2:55 AM 69.8 °F - 69.8 °F 100% 30.06 in - Calm Calm - N/A   Unknown
3:15 AM 68.0 °F - 68.0 °F 100% 30.06 in - Calm Calm - N/A   Unknown
3:35 AM 66.2 °F - 66.2 °F 100% 30.06 in - Calm Calm - N/A   Unknown
3:55 AM 68.0 °F - 68.0 °F 100% 30.06 in - Calm Calm - N/A   Mostly Cloudy
4:15 AM 71.6 °F - 71.6 °F 100% 30.06 in - Calm Calm - N/A   Mostly Cloudy
4:35 AM 71.6 °F - 71.6 °F 100% 30.05 in - Calm Calm - N/A   Unknown
4:55 AM 69.8 °F - 69.8 °F 100% 30.05 in - Calm Calm - N/A   Unknown
5:15 AM 69.8 °F - 69.8 °F 100% 30.05 in - Calm Calm - N/A   Unknown
5:35 AM 68.0 °F - 68.0 °F 100% 30.05 in - Calm Calm - N/A   Unknown
5:55 AM 68.0 °F - 68.0 °F 100% 30.05 in - Calm Calm - N/A   Unknown
6:15 AM 68.0 °F - 68.0 °F 100% 30.05 in - Calm Calm - N/A   Unknown
6:35 AM 66.2 °F - 66.2 °F 100% 30.05 in - Calm Calm - N/A   Unknown
6:55 AM 68.0 °F - 68.0 °F 100% 30.05 in - Calm Calm - N/A   Unknown
7:15 AM 66.2 °F - 66.2 °F 100% 30.05 in - Calm Calm - N/A   Unknown
7:35 AM 69.8 °F - 69.8 °F 100% 30.04 in - Calm Calm - N/A   Unknown
7:55 AM 71.6 °F - 71.6 °F 100% 30.05 in - Calm Calm - N/A   Unknown
8:15 AM 71.6 °F - 71.6 °F 100% 30.04 in - Calm Calm - N/A   Unknown
8:35 AM 73.4 °F - 73.4 °F 100% 30.04 in - Calm Calm - N/A   Unknown
8:55 AM 77.0 °F - 73.4 °F 89% 30.04 in - Calm Calm - N/A   Unknown
9:15 AM 78.8 °F - 73.4 °F 83% 30.04 in - WSW 4.6 mph - N/A   Clear
9:35 AM 78.8 °F - 71.6 °F 78% 30.04 in - WSW 4.6 mph - N/A   Clear
9:55 AM 80.6 °F 84.6 °F 71.6 °F 74% 30.04 in - WSW 4.6 mph - N/A   Scattered Clouds
10:15 AM 82.4 °F 87.2 °F 71.6 °F 70% 30.03 in - West 4.6 mph - N/A   Scattered Clouds
10:35 AM 84.2 °F 89.6 °F 71.6 °F 66% 30.02 in - West 4.6 mph - N/A   Clear
10:55 AM 87.8 °F 92.6 °F 69.8 °F 55% 30.02 in - SW 6.9 mph - N/A   Clear
11:15 AM 87.8 °F 92.6 °F 69.8 °F 55% 30.02 in - West 8.1 mph - N/A   Clear
11:35 AM 87.8 °F 92.6 °F 69.8 °F 55% 30.01 in - SW 4.6 mph - N/A   Clear
11:55 AM 89.6 °F 94.7 °F 69.8 °F 52% 30.00 in - West 8.1 mph - N/A   Clear
12:15 PM 91.4 °F 96.8 °F 69.8 °F 49% 30.00 in - West 6.9 mph - N/A   Clear
12:35 PM 91.4 °F 96.8 °F 69.8 °F 49% 29.99 in - West 6.9 mph - N/A   Clear
12:55 PM 91.4 °F 95.4 °F 68.0 °F 46% 29.98 in - West 9.2 mph 16.1 mph N/A   Clear
1:15 PM 91.4 °F 96.8 °F 69.8 °F 49% 29.97 in - West 9.2 mph - N/A   Clear
1:35 PM 91.4 °F 96.8 °F 69.8 °F 49% 29.96 in - WSW 4.6 mph - N/A   Clear
1:55 PM 91.4 °F 96.8 °F 69.8 °F 49% 29.95 in - West 10.4 mph - N/A   Clear
2:15 PM 93.2 °F 98.8 °F 69.8 °F 46% 29.95 in - SW 6.9 mph - N/A   Scattered Clouds
2:35 PM 93.2 °F 98.8 °F 69.8 °F 46% 29.93 in - SSW 5.8 mph - N/A   Scattered Clouds
2:55 PM 91.4 °F 96.8 °F 69.8 °F 49% 29.92 in - West 6.9 mph - N/A   Scattered Clouds
3:15 PM 95.0 °F 101.3 °F 69.8 °F 44% 29.91 in - SSW 8.1 mph - N/A   Scattered Clouds
3:35 PM 91.4 °F 96.8 °F 69.8 °F 49% 29.90 in - South 6.9 mph - N/A   Scattered Clouds
3:55 PM 91.4 °F 96.8 °F 69.8 °F 49% 29.89 in - South 5.8 mph - N/A   Scattered Clouds
4:15 PM 91.4 °F 96.8 °F 69.8 °F 49% 29.88 in - SSW 10.4 mph - N/A   Scattered Clouds
4:35 PM 91.4 °F 96.8 °F 69.8 °F 49% 29.87 in - SSW 9.2 mph - N/A   Scattered Clouds
4:55 PM 91.4 °F 98.4 °F 71.6 °F 52% 29.87 in - SW 6.9 mph - N/A   Scattered Clouds
5:15 PM 91.4 °F 98.4 °F 71.6 °F 52% 29.86 in - SSW 6.9 mph - N/A   Scattered Clouds
5:35 PM 91.4 °F 98.4 °F 71.6 °F 52% 29.86 in - SSW 9.2 mph - N/A   Scattered Clouds
5:55 PM 89.6 °F 96.2 °F 71.6 °F 55% 29.85 in - SSW 8.1 mph - N/A   Mostly Cloudy
6:15 PM 89.6 °F 96.2 °F 71.6 °F 55% 29.85 in - South 5.8 mph - N/A   Scattered Clouds
6:35 PM 87.8 °F 93.8 °F 71.6 °F 58% 29.85 in - SSW 6.9 mph - N/A   Clear
6:55 PM 86.0 °F 91.8 °F 71.6 °F 62% 29.85 in - South 4.6 mph - N/A   Clear
7:15 PM 84.2 °F 89.6 °F 71.6 °F 66% 29.85 in - South 4.6 mph - N/A   Clear
7:35 PM 82.4 °F 88.2 °F 73.4 °F 74% 29.85 in - Calm Calm - N/A   Scattered Clouds
7:55 PM 80.6 °F 85.4 °F 73.4 °F 79% 29.85 in - SSW 3.5 mph - N/A   Mostly Cloudy
8:15 PM 80.6 °F 85.4 °F 73.4 °F 79% 29.85 in - Calm Calm - N/A   Scattered Clouds
8:35 PM 78.8 °F - 73.4 °F 83% 29.85 in - South 3.5 mph - N/A   Clear
8:55 PM 80.6 °F 85.4 °F 73.4 °F 79% 29.86 in - Calm Calm - N/A   Clear
9:15 PM 80.6 °F 84.6 °F 71.6 °F 74% 29.86 in - South 4.6 mph - N/A   Clear
9:35 PM 78.8 °F - 73.4 °F 83% 29.86 in - SSW 3.5 mph - N/A   Clear
9:55 PM 78.8 °F - 71.6 °F 78% 29.87 in - SW 4.6 mph - N/A   Scattered Clouds
10:15 PM 78.8 °F - 73.4 °F 83% 29.87 in - SSW 3.5 mph - N/A   Scattered Clouds
10:35 PM 78.8 °F - 73.4 °F 83% 29.86 in - SSW 3.5 mph - N/A   Mostly Cloudy
10:55 PM 78.8 °F - 73.4 °F 83% 29.86 in - SSW 4.6 mph - N/A   Mostly Cloudy
11:15 PM 77.0 °F - 73.4 °F 89% 29.85 in - SSW 3.5 mph - N/A   Unknown
11:35 PM 77.0 °F - 73.4 °F 89% 29.85 in - Calm Calm - N/A   Unknown
11:55 PM 77.0 °F - 73.4 °F 89% 29.85 in - Calm Calm - N/A   Unknown